Regional Weather Roundup
Issued by NWS

Home | Current Version | Previous Version | Text Only | Print | Product List | Glossary On
Versions: 1 2 3 4 5 6 7 8 9 10 11 12 13 14 15 16 17 18 19 20 21 22 23 24 25 26 27 28 29 30 31 32 33 34 35 36 37 38 39 40 41 42 43 44 45 46 47 48 49 50
435
ASUS43 KDTX 252210
RWRMI
MICHIGAN HOURLY REGIONAL WEATHER ROUNDUP
NATIONAL WEATHER SERVICE DETROIT/PONTIAC MI
600 PM EDT TUE APR 25 2017

NOTE: "FAIR" INDICATES FEW OR NO CLOUDS BELOW 12,000 FEET WITH NO
SIGNIFICANT WEATHER AND/OR OBSTRUCTION TO VISIBILITY.

MIZ047>049-052>055-059>063-066>070-074>076-081>083-252300-
SOUTHEAST LOWER MICHIGAN

CITY           SKY/WX    TMP DP  RH WIND       PRES   REMARKS
ADRIAN         CLOUDY    69  55  60 SE10      29.72F
ALMA           CLOUDY    70  54  57 SE7       29.71S
ANN ARBOR      CLOUDY    70  56  61 E9G17     29.74S
BAD AXE        CLOUDY    64  54  68 E9        29.77F
CARO           MOSUNNY   69  55  59 SE10G17   29.73F
DETROIT CITY   SUNNY     65  54  67 E12       29.76S
DETROIT        PTSUNNY   71  55  56 SE8       29.75F
FLINT          CLOUDY    72  54  53 SE14      29.72F
GROSSE ILE     CLOUDY    68  55  63 SE5       29.74F
HILLSDALE      MOSUNNY   72  52  49 S10       29.71S
HOWELL         CLOUDY    70  51  50 S12G18    29.72F

CITY           SKY/WX    TMP DP  RH WIND       PRES   REMARKS
JACKSON        CLOUDY    73  54  51 SE12G18   29.71F
LAMBERTVILLE   MOSUNNY   62  53  73 E10       29.74S
LANSING        CLOUDY    72  53  51 SE13      29.71F
LAPEER         FAIR      69  52  56 SE7       29.76S
MASON          CLOUDY    70  55  59 SE12      29.71F
MONROE         CLOUDY    64  53  67 S7G22     29.74F
MT. CLEMENS    PTSUNNY   64  55  72 SE10      29.76F
PONTIAC        CLOUDY    69  54  58 SE10      29.74F
PORT HOPE        N/A     57  50  77 SE12      29.77F
PORT HURON     PTSUNNY   70  52  52 SE12G18   29.77S
TRI CITIES     CLOUDY    72  55  55 S9        29.72F
MIDLAND        FAIR      69  52  54 E9        29.71S
TROY           SUNNY     69  51  53 E6        29.77F
SAGINAW HB     CLOUDY    72  50  46 SE9       29.71F
$$
MIZ043>046-050>051-056>058-064>065-071>073-077>080-252300-
SOUTHWEST LOWER MICHIGAN

CITY           SKY/WX    TMP DP  RH WIND       PRES   REMARKS
BATTLE CREEK   PTSUNNY   72  55  55 S13       29.69S
BENTON HARBOR  PTSUNNY   74  53  48 SE14      29.62F
BIG RAPIDS     CLOUDY    68  52  55 SE8       29.68F
COLDWATER      MOSUNNY   71  54  55 SE10G17   29.69F
FREMONT        FAIR      71  50  46 SE8       29.65F
HOLLAND        MOSUNNY   73  55  53 VRB6      29.65F
GRAND RAPIDS   CLOUDY    72  55  55 SE12      29.67F
IONIA          FAIR      71  54  53 SE12      29.68F
KALAMAZOO      PTSUNNY   74  52  46 SE9       29.67F
LUDINGTON      MOSUNNY   67  54  63 SW6       29.63F
MARSHALL       MOSUNNY   73  55  53 SE9       29.69S
MOUNT PLEASANT CLOUDY    71  52  52 SE8       29.70S
MUSKEGON       CLOUDY    72  54  53 S6        29.64F
SOUTH HAVEN    PTSUNNY   74  53  49 SE10G17   29.62F
$$
MIZ016>042-252300-
NORTHERN LOWER MICHIGAN

CITY           SKY/WX    TMP DP  RH WIND       PRES   REMARKS
ALPENA         CLOUDY    50  46  86 E15       29.77R
BEAVER ISLAND  CLOUDY    51  42  70 E13       29.71F
BELLAIRE       CLOUDY    73  48  41 S8        29.67S
CADILLAC       CLOUDY    67  52  56 SE13      29.69F
CHARLEVOIX     CLOUDY    54  43  66 CALM      29.71S
FRANKFORT      CLOUDY    66  50  56 W3        29.65F
GAYLORD        PTSUNNY   70  48  45 S12       29.70F
GRAYLING       CLOUDY    67  50  54 S9        29.72S
HARBOR SPRINGS CLOUDY    67  48  50 E7        29.68S
HOUGHTON LAKE  CLOUDY    66  49  54 S9        29.72F
MANISTEE       MOSUNNY   69  53  56 W9        29.63F
OSCODA         MOSUNNY   54  47  78 SE8       29.76F
PELLSTON       MOSUNNY   61  44  53 NE9       29.71S
ROGERS CITY    CLOUDY    53  45  72 E12       29.75F
TRAVERSE CITY  CLOUDY    74  51  44 SE8       29.64F
$$
MIZ007>008-015-252300-
EASTERN UPPER MICHIGAN

CITY           SKY/WX    TMP DP  RH WIND       PRES   REMARKS
KINROSS        SUNNY     52  45  77 E20G25    29.76F
MACKINAC ISLAN SNOW      40  40 100 E21G28    29.74F VSB 1/4 WCI  31
NEWBERRY       PTSUNNY   65  46  49 E15       29.69F
S. S. MARIE    PTSUNNY   53  45  74 E13G25    29.77F
MUNISING         N/A     67  48  50 S16G24    29.64F
$$
MIZ004>006-011>014-085-252300-
CENTRAL UPPER MICHIGAN

CITY           SKY/WX    TMP DP  RH WIND       PRES   REMARKS
MANISTIQUE     MOSUNNY   54  44  67 E12       29.69S
ESCANABA       CLOUDY    57  47  69 E14       29.67S
MENOMINEE      CLOUDY    62  49  62 S10       29.62F
SAWYER-GWINN   SUNNY     63  48  59 S14G20    29.64F
$$
MIZ001>003-009>011-084-252300-
WESTERN UPPER MICHIGAN

CITY           SKY/WX    TMP DP  RH WIND       PRES   REMARKS
IRON MOUNTAIN  MOSUNNY   69  43  38 SE16G23   29.58F
HOUGHTON       MOSUNNY   64  41  42 N13       29.59F
COPPER HARBOR    N/A     43  38  82 MISG      29.65R
IRONWOOD       CLOUDY    47  37  68 N7        29.60S
$$

ABBREVIATIONS USED IN REMARKS
   TC - TEMPERATURE IN CELSIUS
  WCI - WIND CHILL INDEX
   HX - HEAT INDEX
  VSB - VISIBILITY





USA.gov is the U.S. government's official web portal to all federal, state and local government web resources and services.